Weather History for Astoria, OR

Change the Weather History Date:

Sunday, May 12, 2013

  Actual Average Record
Temperature  
Mean Temperature 60 °F 52 °F  
Max Temperature 64 °F 60 °F 87 °F (1912)
Min Temperature 56 °F 45 °F 31 °F (1985)
Degree Days  
Heating Degree Days 5 13  
Month to date heating degree days 105 162  
Since 1 July heating degree days 4539 4571  
Cooling Degree Days 0 0  
Month to date cooling degree days 1 0  
Year to date cooling degree days 1 0  
Growing Degree Days 10 (Base 50)    
Moisture  
Dew Point 54 °F    
Average Humidity 83    
Maximum Humidity 93    
Minimum Humidity 72    
Precipitation  
Precipitation 0.01 in 0.11 in 0.97 in (1945)
Month to date precipitation 0.02 1.43  
Year to date precipitation 26.14 31.47  
Snow  
Snow 0.00 in - - ()
Month to date snowfall 0.0  
Snow Depth 0.00 in    
Sea Level Pressure  
Sea Level Pressure 30.09 in    
Wind  
Wind Speed 9 mph (SW)    
Max Wind Speed 24 mph    
Max Gust Speed 32 mph    
Visibility 7 miles    
Events Rain    
T = Trace of Precipitation, MM = Missing Value Source: NWS Daily Summary

Daily Weather History Graph

Daily Weather History Graph

Search for Another Location

Airport:

Trip Planner

Search our weather history database for the weather conditions in past years. The results will help you decide how hot, cold, wet, or windy it might be!

Date:

Astronomy

May. 12, 2013 Rise Set
Actual Time 5:46 AM PDT 8:38 PM PDT
Civil Twilight 5:11 AM PDT 9:13 PM PDT
Nautical Twilight 4:26 AM PDT 9:58 PM PDT
Astronomical Twilight 3:34 AM PDT 10:51 PM PDT
Moon 7:44 AM PDT (5/12) 11:11 PM PDT (5/12)
Length of Visible Light 16h 02m
Length of Day
14h 52m
Waxing Crescent, 7% of the Moon is Illuminated
May 12
Waxing Crescent
May 17
First Quarter
May 24
Full
May 31
Last Quarter
Jun 8
New

Hourly Weather History & Observations

Time (PDT) Temp. Dew Point Humidity Pressure Visibility Wind Dir Wind Speed Gust Speed Precip Events Conditions
12:55 AM 57.0 °F 53.1 °F 87% 30.09 in 10.0 mi WSW 4.6 mph - N/A   Overcast
1:55 AM 57.0 °F 52.0 °F 83% 30.08 in 10.0 mi Calm Calm - N/A   Mostly Cloudy
2:55 AM 57.9 °F 53.1 °F 84% 30.07 in 10.0 mi Calm Calm - N/A   Overcast
3:55 AM 57.0 °F 54.0 °F 89% 30.08 in 10.0 mi Calm Calm - N/A   Overcast
4:55 AM 57.9 °F 54.0 °F 87% 30.08 in 10.0 mi SSW 4.6 mph - N/A   Overcast
5:55 AM 57.9 °F 54.0 °F 87% 30.08 in 10.0 mi SW 8.1 mph - 0.00 in   Mostly Cloudy
6:55 AM 59.0 °F 52.0 °F 78% 30.09 in 10.0 mi Variable 5.8 mph - N/A   Mostly Cloudy
7:55 AM 60.1 °F 51.1 °F 72% 30.09 in 10.0 mi South 6.9 mph - N/A   Mostly Cloudy
8:55 AM 59.0 °F 53.1 °F 81% 30.10 in 10.0 mi SW 5.8 mph - N/A   Overcast
9:55 AM 57.0 °F 53.1 °F 87% 30.11 in 10.0 mi SW 13.8 mph 20.7 mph N/A   Overcast
10:55 AM 57.9 °F 53.1 °F 84% 30.11 in 10.0 mi SSW 10.4 mph - N/A   Overcast
11:37 AM 57.2 °F 53.6 °F 88% 30.12 in 10.0 mi SW 13.8 mph 23.0 mph N/A   Overcast
11:55 AM 59.0 °F 54.0 °F 83% 30.12 in 10.0 mi SW 12.7 mph 21.9 mph N/A   Overcast
12:55 PM 60.1 °F 54.0 °F 80% 30.12 in 10.0 mi SSW 17.3 mph 27.6 mph N/A   Overcast
1:55 PM 62.1 °F 55.0 °F 78% 30.12 in 10.0 mi SW 18.4 mph 28.8 mph N/A   Mostly Cloudy
2:55 PM 61.0 °F 55.0 °F 81% 30.12 in 10.0 mi SW 18.4 mph 28.8 mph N/A   Clear
3:16 PM 59.0 °F 53.6 °F 82% 30.12 in 10.0 mi SW 24.2 mph 32.2 mph N/A   Mostly Cloudy
3:55 PM 60.1 °F 55.0 °F 83% 30.11 in 10.0 mi SSW 12.7 mph 21.9 mph N/A   Overcast
4:55 PM 60.1 °F 55.0 °F 83% 30.09 in 10.0 mi SW 11.5 mph - N/A   Mostly Cloudy
5:15 PM 57.2 °F 55.4 °F 94% 30.09 in 5.0 mi SW 12.7 mph 23.0 mph 0.00 in Rain Light Rain
5:55 PM 57.0 °F 55.0 °F 93% 30.09 in 4.0 mi SW 13.8 mph 21.9 mph 0.00 in Rain Light Rain
6:08 PM 57.2 °F 55.4 °F 94% 30.08 in 2.5 mi SW 12.7 mph 20.7 mph 0.00 in Rain Light Rain
6:55 PM 55.9 °F 54.0 °F 93% 30.07 in 2.5 mi SW 13.8 mph 24.2 mph 0.01 in Rain Light Rain
7:06 PM 55.4 °F 53.6 °F 94% 30.07 in 1.8 mi SW 12.7 mph - 0.01 in Rain Light Rain
7:29 PM 55.4 °F 53.6 °F 94% 30.07 in 1.8 mi SSW 11.5 mph 21.9 mph 0.04 in Rain Light Rain
7:41 PM 55.4 °F 53.6 °F 94% 30.07 in 2.0 mi SW 12.7 mph - 0.05 in Rain Light Rain
7:55 PM 55.0 °F 54.0 °F 96% 30.06 in 2.5 mi SW 10.4 mph - 0.05 in Rain Light Rain
8:21 PM 55.4 °F 53.6 °F 94% 30.06 in 3.0 mi SW 9.2 mph - 0.02 in Rain Light Rain
8:45 PM 55.4 °F 53.6 °F 94% 30.07 in 7.0 mi SW 11.5 mph - 0.02 in   Overcast
8:55 PM 55.0 °F 54.0 °F 96% 30.07 in 3.0 mi SW 9.2 mph - 0.02 in Rain Light Rain
9:02 PM 55.4 °F 53.6 °F 94% 30.07 in 2.5 mi SW 10.4 mph - 0.01 in Rain Light Rain
9:31 PM 55.4 °F 53.6 °F 94% 30.07 in 2.5 mi SSW 10.4 mph 18.4 mph 0.02 in Rain Light Rain
9:39 PM 55.4 °F 53.6 °F 94% 30.07 in 4.0 mi SSW 8.1 mph - N/A Rain Light Rain
9:55 PM 55.0 °F 54.0 °F 96% 30.08 in 8.0 mi SSW 9.2 mph - 0.02 in   Overcast
10:55 PM 55.0 °F 54.0 °F 96% 30.08 in 6.0 mi SSW 5.8 mph - N/A   Overcast
11:50 PM 55.4 °F 53.6 °F 94% 30.09 in 4.0 mi SW 4.6 mph - N/A   Overcast
11:55 PM 55.0 °F 54.0 °F 96% 30.09 in 3.0 mi SW 4.6 mph - N/A   Overcast